| time (UTC) | temp F | wind direction | speed MPH | gust MPH | rain 1hr in | rain 24hr in | rain mn in | humidity % | barometer mb |
| 20260906190006 | 97 | 122 | 2.0 | 7.0 | 0.00 | 0.00 | 0.00 | 40 | 1012.2 |
| 20260906184549 | 97 | 178 | 0.0 | 4.0 | 0.00 | 0.00 | 0.00 | 41 | 1012.1 |
| 20260906184527 | 97 | 139 | 0.0 | 6.0 | 0.00 | 0.00 | 0.00 | 41 | 1012.5 |
| 20260906183111 | 96 | 97 | 0.0 | 1.0 | 0.00 | 0.00 | 0.00 | 43 | 1012.3 |
| 20260906183024 | 97 | 130 | 0.0 | 1.0 | 0.00 | 0.00 | 0.00 | 43 | 1012.7 |
| 20260906181547 | 96 | 12 | 0.0 | 2.0 | 0.00 | 0.00 | 0.00 | 44 | 1012.4 |
| 20260906181519 | 96 | 312 | 1.0 | 2.0 | 0.00 | 0.00 | 0.00 | 42 | 1012.8 |
| 20260906180059 | 95 | 95 | 1.0 | 8.0 | 0.00 | 0.00 | 0.00 | 44 | 1012.5 |
| 20260906180016 | 95 | 128 | 2.0 | 8.0 | 0.00 | 0.00 | 0.00 | 44 | 1012.9 |
| 20260906174539 | 94 | 67 | 0.0 | 1.0 | 0.00 | 0.00 | 0.00 | 49 | 1012.7 |
| 20260906174509 | 95 | 96 | 0.0 | 1.0 | 0.00 | 0.00 | 0.00 | 48 | 1013.1 |
| 20260906173040 | 94 | 65 | 0.0 | 5.0 | 0.00 | 0.00 | 0.00 | 48 | 1013.0 |
| 20260906173031 | 94 | 94 | 1.0 | 5.0 | 0.00 | 0.00 | 0.00 | 47 | 1013.5 |
| 20260906171539 | 93 | 91 | 0.0 | 3.0 | 0.00 | 0.00 | 0.00 | 49 | 1013.4 |
| 20260906171529 | 93 | 19 | 0.0 | 3.0 | 0.00 | 0.00 | 0.00 | 50 | 1013.8 |
| 20260906170039 | 93 | 70 | 0.0 | 1.0 | 0.00 | 0.00 | 0.00 | 52 | 1013.5 |
| 20260906170025 | 93 | 100 | 0.0 | 2.0 | 0.00 | 0.00 | 0.00 | 53 | 1013.9 |
| 20260906164532 | 92 | 75 | 0.0 | 0.0 | 0.00 | 0.00 | 0.00 | 56 | 1013.7 |
| 20260906164520 | 93 | 105 | 0.0 | 0.0 | 0.00 | 0.00 | 0.00 | 54 | 1014.1 |
| 20260906163032 | 92 | 102 | 0.0 | 0.0 | 0.00 | 0.00 | 0.00 | 55 | 1013.8 |
| 20260906163014 | 92 | 83 | 0.0 | 0.0 | 0.00 | 0.00 | 0.00 | 56 | 1014.1 |
| 20260906161526 | 91 | 53 | 0.0 | 0.0 | 0.00 | 0.00 | 0.00 | 58 | 1014.0 |
| 20260906161520 | 91 | 83 | 0.0 | 0.0 | 0.00 | 0.00 | 0.00 | 57 | 1014.2 |
| 20260906160033 | 90 | 83 | 0.0 | 1.0 | 0.00 | 0.00 | 0.00 | 59 | 1014.2 |
| 20260906160025 | 90 | 54 | 0.0 | 1.0 | 0.00 | 0.00 | 0.00 | 60 | 1013.9 |
| 20260906154530 | 89 | 84 | 0.0 | 1.0 | 0.00 | 0.00 | 0.00 | 60 | 1014.1 |
| 20260906154519 | 89 | 53 | 0.0 | 1.0 | 0.00 | 0.00 | 0.00 | 61 | 1013.7 |
| 20260906153030 | 88 | 83 | 0.0 | 0.0 | 0.00 | 0.00 | 0.00 | 63 | 1014.1 |
| 20260906153015 | 88 | 53 | 0.0 | 0.0 | 0.00 | 0.00 | 0.00 | 63 | 1013.6 |
| 20260906151531 | 87 | 53 | 0.0 | 0.0 | 0.00 | 0.00 | 0.00 | 64 | 1013.7 |
| 20260906151523 | 87 | 83 | 0.0 | 0.0 | 0.00 | 0.00 | 0.00 | 63 | 1014.2 |
| 20260906150048 | 86 | 53 | 0.0 | 0.0 | 0.00 | 0.00 | 0.00 | 65 | 1013.9 |
| 20260906150023 | 86 | 84 | 0.0 | 0.0 | 0.00 | 0.00 | 0.00 | 65 | 1014.2 |
| 20260906144626 | 85 | 54 | 0.0 | 0.0 | 0.00 | 0.00 | 0.00 | 71 | 1014.0 |
| 20260906144515 | 85 | 83 | 0.0 | 0.0 | 0.00 | 0.00 | 0.00 | 71 | 1014.3 |
| 20260906143038 | 84 | 83 | 0.0 | 0.0 | 0.00 | 0.00 | 0.00 | 73 | 1014.3 |
| 20260906143026 | 84 | 53 | 0.0 | 0.0 | 0.00 | 0.00 | 0.00 | 73 | 1014.0 |
| 20260906141543 | 82 | 53 | 0.0 | 0.0 | 0.00 | 0.00 | 0.00 | 75 | 1014.1 |
| 20260906141531 | 82 | 83 | 0.0 | 0.0 | 0.00 | 0.00 | 0.00 | 76 | 1014.5 |
| 20260906140042 | 81 | 53 | 0.0 | 0.0 | 0.00 | 0.00 | 0.00 | 77 | 1014.2 |
| 20260906140028 | 81 | 83 | 0.0 | 0.0 | 0.00 | 0.00 | 0.00 | 76 | 1014.6 |
| 20260906134611 | 80 | 53 | 0.0 | 0.0 | 0.00 | 0.00 | 0.00 | 78 | 1014.3 |
| 20260906134524 | 81 | 83 | 0.0 | 0.0 | 0.00 | 0.00 | 0.00 | 78 | 1014.6 |
| 20260906133104 | 79 | 53 | 0.0 | 2.0 | 0.00 | 0.00 | 0.00 | 78 | 1014.2 |
| 20260906133023 | 80 | 83 | 0.0 | 2.0 | 0.00 | 0.00 | 0.00 | 78 | 1014.4 |
| 20260906131620 | 78 | 54 | 0.0 | 2.0 | 0.00 | 0.00 | 0.00 | 82 | 1014.1 |
| 20260906131518 | 78 | 83 | 0.0 | 2.0 | 0.00 | 0.00 | 0.00 | 83 | 1014.3 |
| 20260906130049 | 77 | 53 | 0.0 | 1.0 | 0.00 | 0.00 | 0.00 | 84 | 1014.0 |
| 20260906130032 | 78 | 83 | 0.0 | 1.0 | 0.00 | 0.00 | 0.00 | 84 | 1014.3 |
| 20260906124540 | 76 | 53 | 0.0 | 0.0 | 0.00 | 0.00 | 0.00 | 84 | 1013.9 |
| 20260906124535 | 77 | 84 | 0.0 | 0.0 | 0.00 | 0.00 | 0.00 | 84 | 1014.2 |
| 20260906123042 | 76 | 53 | 0.0 | 0.0 | 0.00 | 0.00 | 0.00 | 86 | 1013.7 |
| 20260906123030 | 76 | 83 | 0.0 | 0.0 | 0.00 | 0.00 | 0.00 | 86 | 1014.1 |
| 20260906121543 | 75 | 54 | 0.0 | 0.0 | 0.00 | 0.00 | 0.00 | 85 | 1013.5 |
| 20260906121531 | 76 | 84 | 0.0 | 0.0 | 0.00 | 0.00 | 0.00 | 84 | 1013.9 |
| 20260906120035 | 75 | 53 | 0.0 | 0.0 | 0.00 | 0.00 | 0.00 | 83 | 1013.3 |
| 20260906120005 | 76 | 83 | 0.0 | 0.0 | 0.00 | 0.00 | 0.00 | 83 | 1013.7 |
| 20260906114541 | 76 | 53 | 0.0 | 0.0 | 0.00 | 0.00 | 0.00 | 83 | 1013.1 |
| 20260906114508 | 76 | 83 | 0.0 | 0.0 | 0.00 | 0.00 | 0.00 | 82 | 1013.5 |
| 20260906113044 | 76 | 53 | 0.0 | 0.0 | 0.00 | 0.00 | 0.00 | 84 | 1013.0 |
| 20260906113003 | 76 | 83 | 0.0 | 0.0 | 0.00 | 0.00 | 0.00 | 82 | 1013.2 |
| 20260906111531 | 76 | 53 | 0.0 | 0.0 | 0.00 | 0.00 | 0.00 | 82 | 1012.8 |
| 20260906111505 | 76 | 83 | 0.0 | 0.0 | 0.00 | 0.00 | 0.00 | 82 | 1013.1 |
| 20260906110028 | 76 | 53 | 0.0 | 0.0 | 0.00 | 0.00 | 0.00 | 82 | 1012.8 |
| 20260906110004 | 76 | 83 | 0.0 | 0.0 | 0.00 | 0.00 | 0.00 | 82 | 1013.0 |
| 20260906104612 | 76 | 53 | 0.0 | 0.0 | 0.00 | 0.00 | 0.00 | 81 | 1012.5 |
| 20260906104504 | 77 | 83 | 0.0 | 0.0 | 0.00 | 0.00 | 0.00 | 81 | 1012.8 |
| 20260906103015 | 77 | 53 | 0.0 | 0.0 | 0.00 | 0.00 | 0.00 | 81 | 1012.4 |
| 20260906103003 | 77 | 83 | 0.0 | 0.0 | 0.00 | 0.00 | 0.00 | 81 | 1012.9 |
| 20260906101513 | 78 | 83 | 0.0 | 0.0 | 0.00 | 0.00 | 0.00 | 80 | 1012.8 |
| 20260906100017 | 78 | 53 | 0.0 | 2.0 | 0.00 | 0.00 | 0.00 | 79 | 1012.3 |
| 20260906100002 | 79 | 83 | 0.0 | 2.0 | 0.00 | 0.00 | 0.00 | 79 | 1012.6 |
| 20260906094511 | 79 | 53 | 0.0 | 1.0 | 0.00 | 0.00 | 0.00 | 80 | 1012.2 |
| 20260906094504 | 79 | 83 | 0.0 | 1.0 | 0.00 | 0.00 | 0.00 | 79 | 1012.5 |
| 20260906093011 | 79 | 53 | 0.0 | 1.0 | 0.00 | 0.00 | 0.00 | 81 | 1012.1 |
| 20260906093005 | 79 | 83 | 0.0 | 1.0 | 0.00 | 0.00 | 0.00 | 80 | 1012.4 |
| 20260906091523 | 79 | 56 | 0.0 | 1.0 | 0.00 | 0.00 | 0.00 | 81 | 1011.9 |
| 20260906091504 | 80 | 86 | 0.0 | 1.0 | 0.00 | 0.00 | 0.00 | 80 | 1012.3 |
| 20260906090009 | 78 | 55 | 0.0 | 1.0 | 0.00 | 0.00 | 0.00 | 80 | 1011.9 |
| 20260906090004 | 78 | 86 | 0.0 | 1.0 | 0.00 | 0.00 | 0.00 | 79 | 1012.2 |
| 20260906084508 | 78 | 56 | 0.0 | 0.0 | 0.00 | 0.00 | 0.00 | 80 | 1011.9 |
| 20260906084506 | 78 | 86 | 0.0 | 0.0 | 0.00 | 0.00 | 0.00 | 80 | 1012.2 |
| 20260906083012 | 79 | 56 | 0.0 | 0.0 | 0.00 | 0.00 | 0.00 | 79 | 1011.9 |
| 20260906083003 | 79 | 85 | 0.0 | 0.0 | 0.00 | 0.00 | 0.00 | 79 | 1012.2 |
| 20260906081511 | 78 | 56 | 0.0 | 2.0 | 0.00 | 0.00 | 0.00 | 80 | 1011.8 |
| 20260906081502 | 79 | 85 | 0.0 | 2.0 | 0.00 | 0.00 | 0.00 | 80 | 1012.2 |
| 20260906080005 | 79 | 86 | 0.0 | 2.0 | 0.00 | 0.00 | 0.00 | 79 | 1012.1 |
| 20260906074507 | 79 | 87 | 1.0 | 3.0 | 0.00 | 0.00 | 0.00 | 80 | 1012.2 |
| 20260906074503 | 78 | 57 | 0.0 | 3.0 | 0.00 | 0.00 | 0.00 | 81 | 1011.9 |
| 20260906073007 | 79 | 88 | 0.0 | 2.0 | 0.00 | 0.00 | 0.00 | 81 | 1012.4 |
| 20260906073002 | 79 | 58 | 0.0 | 2.0 | 0.00 | 0.00 | 0.00 | 81 | 1012.0 |
| 20260906071604 | 79 | 57 | 0.0 | 1.0 | 0.00 | 0.00 | 0.00 | 81 | 1012.1 |
| 20260906071509 | 79 | 88 | 0.0 | 1.0 | 0.00 | 0.00 | 0.00 | 79 | 1012.5 |
| 20260906070059 | 79 | 58 | 1.0 | 3.0 | 0.00 | 0.00 | 0.00 | 81 | 1012.3 |
| 20260906070004 | 79 | 87 | 2.0 | 3.0 | 0.00 | 0.00 | 0.00 | 81 | 1012.7 |
| 20260906064557 | 79 | 58 | 0.0 | 0.0 | 0.00 | 0.00 | 0.00 | 80 | 1012.4 |
| 20260906064508 | 79 | 88 | 0.0 | 0.0 | 0.00 | 0.00 | 0.00 | 80 | 1012.8 |
| 20260906063058 | 79 | 58 | 0.0 | 0.0 | 0.00 | 0.00 | 0.00 | 79 | 1012.5 |
| 20260906063006 | 80 | 88 | 0.0 | 0.0 | 0.00 | 0.00 | 0.00 | 79 | 1012.8 |
| 20260906061559 | 80 | 58 | 0.0 | 0.0 | 0.00 | 0.00 | 0.00 | 79 | 1012.3 |
| 20260906061510 | 80 | 88 | 0.0 | 0.0 | 0.00 | 0.00 | 0.00 | 79 | 1012.8 |
| 20260906060052 | 80 | 58 | 0.0 | 0.0 | 0.00 | 0.00 | 0.00 | 80 | 1012.3 |
| 20260906060008 | 80 | 88 | 0.0 | 0.0 | 0.00 | 0.00 | 0.00 | 80 | 1012.8 |
| 20260906054551 | 80 | 58 | 0.0 | 1.0 | 0.00 | 0.00 | 0.00 | 79 | 1012.3 |
| 20260906054508 | 81 | 88 | 0.0 | 1.0 | 0.00 | 0.00 | 0.00 | 78 | 1012.8 |
| 20260906053050 | 81 | 58 | 0.0 | 1.0 | 0.00 | 0.00 | 0.00 | 78 | 1012.3 |
| 20260906053010 | 81 | 88 | 0.0 | 1.0 | 0.00 | 0.00 | 0.00 | 77 | 1012.7 |
| 20260906051559 | 80 | 59 | 0.0 | 0.0 | 0.00 | 0.00 | 0.00 | 77 | 1012.2 |
| 20260906051507 | 81 | 88 | 0.0 | 0.0 | 0.00 | 0.00 | 0.00 | 77 | 1012.5 |
| 20260906050053 | 81 | 59 | 0.0 | 0.0 | 0.00 | 0.00 | 0.00 | 78 | 1012.1 |
| 20260906050011 | 81 | 88 | 0.0 | 0.0 | 0.00 | 0.00 | 0.00 | 78 | 1012.5 |
| 20260906044546 | 81 | 59 | 0.0 | 0.0 | 0.00 | 0.00 | 0.00 | 75 | 1012.0 |
| 20260906044512 | 81 | 89 | 0.0 | 0.0 | 0.00 | 0.00 | 0.00 | 76 | 1012.4 |
| 20260906043046 | 81 | 59 | 0.0 | 0.0 | 0.00 | 0.00 | 0.00 | 74 | 1011.8 |
| 20260906043014 | 81 | 89 | 0.0 | 0.0 | 0.00 | 0.00 | 0.00 | 73 | 1012.4 |
| 20260906041545 | 81 | 59 | 0.0 | 0.0 | 0.00 | 0.00 | 0.00 | 73 | 1012.0 |
| 20260906041508 | 82 | 89 | 0.0 | 0.0 | 0.00 | 0.00 | 0.00 | 73 | 1012.5 |
| 20260906040047 | 82 | 59 | 0.0 | 0.0 | 0.00 | 0.00 | 0.00 | 74 | 1011.9 |
| 20260906040024 | 82 | 88 | 0.0 | 0.0 | 0.00 | 0.00 | 0.00 | 73 | 1012.4 |
| 20260906034544 | 82 | 59 | 0.0 | 0.0 | 0.00 | 0.00 | 0.00 | 71 | 1011.8 |
| 20260906034515 | 83 | 88 | 0.0 | 0.0 | 0.00 | 0.00 | 0.00 | 71 | 1012.3 |
| 20260906033048 | 83 | 58 | 0.0 | 0.0 | 0.00 | 0.00 | 0.00 | 68 | 1012.0 |
| 20260906033032 | 83 | 89 | 0.0 | 0.0 | 0.00 | 0.00 | 0.00 | 68 | 1012.3 |
| 20260906031555 | 83 | 59 | 0.0 | 0.0 | 0.00 | 0.00 | 0.00 | 70 | 1012.0 |
| 20260906031515 | 84 | 89 | 0.0 | 0.0 | 0.00 | 0.00 | 0.00 | 69 | 1012.5 |
| 20260906030043 | 84 | 59 | 0.0 | 0.0 | 0.00 | 0.00 | 0.00 | 70 | 1012.1 |
| 20260906030018 | 84 | 89 | 0.0 | 0.0 | 0.00 | 0.00 | 0.00 | 69 | 1012.5 |
| 20260906024541 | 84 | 58 | 0.0 | 0.0 | 0.00 | 0.00 | 0.00 | 74 | 1012.0 |
| 20260906024513 | 84 | 89 | 0.0 | 0.0 | 0.00 | 0.00 | 0.00 | 73 | 1012.5 |
| 20260906023041 | 84 | 58 | 0.0 | 0.0 | 0.00 | 0.00 | 0.00 | 72 | 1012.1 |
| 20260906023007 | 84 | 88 | 0.0 | 0.0 | 0.00 | 0.00 | 0.00 | 71 | 1012.5 |
| 20260906021542 | 84 | 59 | 0.0 | 0.0 | 0.00 | 0.00 | 0.00 | 71 | 1012.0 |
| 20260906021507 | 85 | 89 | 0.0 | 0.0 | 0.00 | 0.00 | 0.00 | 71 | 1012.3 |
| 20260906020041 | 85 | 59 | 0.0 | 0.0 | 0.00 | 0.00 | 0.00 | 68 | 1011.9 |
| 20260906020016 | 85 | 89 | 0.0 | 0.0 | 0.00 | 0.00 | 0.00 | 68 | 1012.2 |
| 20260906014540 | 86 | 58 | 0.0 | 0.0 | 0.00 | 0.00 | 0.00 | 65 | 1011.9 |
| 20260906014517 | 86 | 88 | 0.0 | 0.0 | 0.00 | 0.00 | 0.00 | 65 | 1012.0 |
| 20260906013039 | 86 | 59 | 0.0 | 0.0 | 0.00 | 0.00 | 0.00 | 63 | 1011.7 |
| 20260906013018 | 87 | 89 | 0.0 | 0.0 | 0.00 | 0.00 | 0.00 | 61 | 1011.9 |
| 20260906011542 | 87 | 59 | 0.0 | 0.0 | 0.00 | 0.00 | 0.00 | 59 | 1011.5 |
| 20260906011515 | 88 | 89 | 0.0 | 0.0 | 0.00 | 0.00 | 0.00 | 58 | 1011.7 |
| 20260906010038 | 88 | 59 | 0.0 | 0.0 | 0.00 | 0.00 | 0.00 | 58 | 1011.3 |
| 20260906010014 | 88 | 89 | 0.0 | 0.0 | 0.00 | 0.00 | 0.00 | 57 | 1011.5 |
| 20260906004538 | 89 | 39 | 0.0 | 1.0 | 0.00 | 0.00 | 0.00 | 57 | 1011.1 |
| 20260906004520 | 89 | 69 | 0.0 | 1.0 | 0.00 | 0.00 | 0.00 | 59 | 1011.5 |
| 20260906003037 | 91 | 58 | 0.0 | 0.0 | 0.00 | 0.00 | 0.00 | 55 | 1011.1 |
| 20260906003024 | 91 | 88 | 0.0 | 0.0 | 0.00 | 0.00 | 0.00 | 54 | 1011.5 |
| 20260906001537 | 93 | 58 | 0.0 | 0.0 | 0.00 | 0.00 | 0.00 | 50 | 1011.0 |
| 20260906001524 | 93 | 88 | 0.0 | 0.0 | 0.00 | 0.00 | 0.00 | 49 | 1011.2 |
| 20260906000035 | 94 | 57 | 0.0 | 0.0 | 0.00 | 0.00 | 0.00 | 48 | 1011.0 |
| 20260906000021 | 95 | 87 | 0.0 | 0.0 | 0.00 | 0.00 | 0.00 | 47 | 1011.2 |
| 20260905234548 | 95 | 57 | 0.0 | 0.0 | 0.00 | 0.00 | 0.00 | 45 | 1010.9 |
| 20260905234520 | 96 | 88 | 0.0 | 0.0 | 0.00 | 0.00 | 0.00 | 44 | 1011.2 |
| 20260905233132 | 96 | 57 | 0.0 | 1.0 | 0.00 | 0.00 | 0.00 | 44 | 1010.9 |
| 20260905233011 | 96 | 107 | 0.0 | 1.0 | 0.00 | 0.00 | 0.00 | 44 | 1011.1 |
| 20260905231547 | 96 | 58 | 0.0 | 1.0 | 0.00 | 0.00 | 0.00 | 43 | 1010.7 |
| 20260905231523 | 96 | 88 | 0.0 | 1.0 | 0.00 | 0.00 | 0.00 | 43 | 1011.0 |
| 20260905230132 | 96 | 84 | 0.0 | 4.0 | 0.00 | 0.00 | 0.00 | 43 | 1010.8 |
| 20260905230024 | 96 | 114 | 0.0 | 4.0 | 0.00 | 0.00 | 0.00 | 43 | 1011.0 |
| 20260905224601 | 95 | 89 | 0.0 | 5.0 | 0.00 | 0.00 | 0.00 | 46 | 1010.7 |
| 20260905223146 | 96 | 113 | 0.0 | 3.0 | 0.00 | 0.00 | 0.00 | 45 | 1010.6 |
| 20260905223026 | 96 | 49 | 0.0 | 3.0 | 0.00 | 0.00 | 0.00 | 44 | 1010.9 |
| 20260905221521 | 96 | 96 | 0.0 | 5.0 | 0.00 | 0.00 | 0.00 | 45 | 1010.9 |
| 20260905221510 | 95 | 67 | 0.0 | 5.0 | 0.00 | 0.00 | 0.00 | 45 | 1010.7 |
| 20260905220017 | 96 | 57 | 2.0 | 4.0 | 0.00 | 0.00 | 0.00 | 46 | 1011.1 |
| 20260905220007 | 95 | 13 | 1.0 | 4.0 | 0.00 | 0.00 | 0.00 | 47 | 1010.9 |
| 20260905214527 | 97 | 124 | 1.0 | 5.0 | 0.00 | 0.00 | 0.00 | 43 | 1011.3 |
| 20260905214505 | 96 | 93 | 1.0 | 5.0 | 0.00 | 0.00 | 0.00 | 43 | 1011.0 |
| 20260905213029 | 97 | 352 | 0.0 | 7.0 | 0.00 | 0.00 | 0.00 | 43 | 1011.3 |
| 20260905213004 | 97 | 323 | 0.0 | 7.0 | 0.00 | 0.00 | 0.00 | 43 | 1011.0 |
| 20260905211540 | 97 | 95 | 2.0 | 5.0 | 0.00 | 0.00 | 0.00 | 43 | 1011.5 |
| 20260905211503 | 97 | 65 | 1.0 | 5.0 | 0.00 | 0.00 | 0.00 | 43 | 1011.2 |
| 20260905210005 | 97 | 73 | 1.0 | 7.0 | 0.00 | 0.00 | 0.00 | 43 | 1011.6 |
| 20260905210001 | 96 | 43 | 1.0 | 7.0 | 0.00 | 0.00 | 0.00 | 43 | 1011.4 |
| 20260905204606 | 95 | 250 | 1.0 | 4.0 | 0.00 | 0.00 | 0.00 | 44 | 1011.5 |
| 20260905204524 | 96 | 134 | 0.0 | 3.0 | 0.00 | 0.00 | 0.00 | 44 | 1011.7 |
| 20260905204504 | 95 | 104 | 0.0 | 3.0 | 0.00 | 0.00 | 0.00 | 45 | 1011.7 |
| 20260905203116 | 94 | 89 | 3.0 | 8.0 | 0.00 | 0.00 | 0.00 | 47 | 1011.9 |
| 20260905203018 | 95 | 100 | 2.0 | 4.0 | 0.00 | 0.00 | 0.00 | 48 | 1012.1 |
| 20260905201600 | 95 | 49 | 1.0 | 6.0 | 0.00 | 0.00 | 0.00 | 46 | 1012.1 |
| 20260905201513 | 95 | 74 | 1.0 | 6.0 | 0.00 | 0.00 | 0.00 | 46 | 1012.2 |
| 20260905200100 | 97 | 103 | 1.0 | 7.0 | 0.00 | 0.00 | 0.00 | 43 | 1012.2 |
| 20260905200022 | 97 | 101 | 1.0 | 7.0 | 0.00 | 0.00 | 0.00 | 43 | 1012.4 |
| 20260905194554 | 98 | 119 | 2.0 | 5.0 | 0.00 | 0.00 | 0.00 | 41 | 1012.3 |
| 20260905194506 | 99 | 135 | 1.0 | 4.0 | 0.00 | 0.00 | 0.00 | 40 | 1012.4 |
| 20260905193052 | 97 | 53 | 0.0 | 5.0 | 0.00 | 0.00 | 0.00 | 45 | 1012.4 |
| 20260905193005 | 98 | 83 | 0.0 | 5.0 | 0.00 | 0.00 | 0.00 | 42 | 1012.7 |
| 20260905191549 | 97 | 103 | 0.0 | 2.0 | 0.00 | 0.00 | 0.00 | 43 | 1012.6 |
| 20260905191527 | 98 | 146 | 0.0 | 1.0 | 0.00 | 0.00 | 0.00 | 44 | 1013.0 |
| 20260905190048 | 98 | 69 | 0.0 | 0.0 | 0.00 | 0.00 | 0.00 | 44 | 1012.9 |